Back to catalog

COSMOS 1361

AliveMilitaryLEO
NORAD 13164·PAYLOAD·🇷🇺 Russia

Launched May 6, 1982 from Plesetsk Cosmodrome

Loading…

Next Passes (next 24 hours)

TLE

FreshSource: Space-Track

Epoch: Sep 14, 2026, 11:34 UTC

1 13164U 82040E   26257.48223300 -.00000021  00000-0 -35521-4 0  9998
2 13164  74.0082 267.0402 0013784  36.7220 129.8232 12.48212128 21261

Track COSMOS 1361 in real time with AllMySat

Download on the App Store